Preview of NWS' New Version of Forecast
This preview is not operational and should not be used for support decisions.

Regional Weather Roundup (RWR)

Issued by National Weather Service (NWS)

                            
000
ASUS43 KBIS 170510
RWRND 

NORTH DAKOTA REGIONAL WEATHER ROUNDUP
NATIONAL WEATHER SERVICE BISMARCK ND
1100 PM CST SAT FEB 16 2019

NOTE: "FAIR" INDICATES FEW OR NO CLOUDS BELOW 12,000 FEET WITH NO
SIGNIFICANT WEATHER AND/OR OBSTRUCTIONS TO VISIBILITY.


NDZ001>003-009>011-017-170600-
NORTHWEST NORTH DAKOTA
  
CITY           SKY/WX    TMP DP  RH WIND       PRES   REMARKS
WILLISTON      FLURRIES   8   1  73 NE6       29.98R WCI  -2          
MINOT          CLOUDY     8   3  80 NE8       30.02R WCI  -4          
MINOT AFB      CLOUDY     7   2  80 E9        30.02S WCI  -6          
$$
 
NDZ018>021-031>035-040>046-170600-
SOUTHWEST NORTH DAKOTA
  
CITY           SKY/WX    TMP DP  RH WIND       PRES   REMARKS
BISMARCK       LGT SNOW   8   4  83 NE10      29.99R FOG     WCI  -6  
DICKINSON      LGT SNOW   7   2  80 NE8       29.86R VSB 1   WCI  -6  
GARRISON         N/A      6   2  83 E14       29.97R WCI -11          
HETTINGER ARPT LGT SNOW   7   3  84 N6        29.86R FOG     WCI  -3  
$$
 
NDZ004>008-012>016-024-026-027-054-170600-
NORTHEAST NORTH DAKOTA
  
CITY           SKY/WX    TMP DP  RH WIND       PRES   REMARKS
GRAND FORKS    FAIR      -7 -11  83 NW9       30.11R WCI -24          
GRND FRKS AFB  FAIR      -4  -9  80 N9        30.11R WCI -21          
DEVILS LAKE    CLOUDY     4   0  83 NE9       30.06S WCI -10          
$$
 
NDZ022-023-025-028>030-036>039-047>053-170600-
SOUTHEAST NORTH DAKOTA
  
CITY           SKY/WX    TMP DP  RH WIND       PRES   REMARKS
FARGO          CLOUDY    10   6  84 CALM      30.07R                  
JAMESTOWN      CLOUDY     8   3  80 E13       30.01R WCI  -8          
$$